CCM26B LFMN-LFKB

Flight info

Callsign CCM26B
Flight time 0h 31m
Altitude 13000
Route SODRI A3 NORKA
Aircraft A320/M-SDE3FGHIRWY/LB1

Departure

Time 2026-05-05 15:43
Airport Nice-Côte d'Azur Airport (LFMN)

Arrival

Time 2026-05-05 16:14
Airport Bastia-Poretta International airport (LFKB)
Time Latitude Longitude Altitude Speed Heading
2026-05-05 15:20 43.66119 7.20684 23 ft 0 kts 261°
2026-05-05 15:32 43.66119 7.20685 21 ft 1 kts 261°
2026-05-05 15:32 43.66123 7.20718 22 ft 4 kts 261°
2026-05-05 15:33 43.66127 7.20748 23 ft 2 kts 261°
2026-05-05 15:33 43.66134 7.20779 24 ft 4 kts 216°
2026-05-05 15:33 43.66153 7.20783 25 ft 4 kts 171°
2026-05-05 15:33 43.66180 7.20777 23 ft 4 kts 171°
2026-05-05 15:34 43.66187 7.20775 24 ft 0 kts 171°
2026-05-05 15:36 43.66162 7.20781 23 ft 6 kts 171°
2026-05-05 15:36 43.66125 7.20789 24 ft 6 kts 170°
2026-05-05 15:36 43.66064 7.20803 21 ft 11 kts 170°
2026-05-05 15:37 43.65994 7.20819 23 ft 10 kts 171°
2026-05-05 15:37 43.65933 7.20833 21 ft 8 kts 171°
2026-05-05 15:37 43.65881 7.20845 23 ft 8 kts 171°
2026-05-05 15:37 43.65795 7.20864 21 ft 15 kts 171°
2026-05-05 15:38 43.65705 7.20804 22 ft 14 kts 225°
2026-05-05 15:38 43.65639 7.20713 21 ft 13 kts 224°
2026-05-05 15:38 43.65562 7.20684 21 ft 11 kts 170°
2026-05-05 15:38 43.65484 7.20701 21 ft 11 kts 171°
2026-05-05 15:39 43.65392 7.20721 20 ft 15 kts 170°
2026-05-05 15:39 43.65289 7.20735 21 ft 15 kts 188°
2026-05-05 15:39 43.65212 7.20664 21 ft 13 kts 224°
2026-05-05 15:39 43.65153 7.20583 21 ft 11 kts 224°
2026-05-05 15:40 43.65100 7.20510 21 ft 10 kts 226°
2026-05-05 15:40 43.65054 7.20446 21 ft 9 kts 224°
2026-05-05 15:40 43.64991 7.20360 21 ft 14 kts 225°
2026-05-05 15:40 43.64925 7.20268 21 ft 13 kts 225°
2026-05-05 15:41 43.64855 7.20218 21 ft 11 kts 175°
2026-05-05 15:41 43.64799 7.20275 22 ft 10 kts 134°
2026-05-05 15:41 43.64766 7.20321 23 ft 9 kts 134°
2026-05-05 15:41 43.64778 7.20393 23 ft 0 kts 45°
2026-05-05 15:42 43.64802 7.20427 24 ft 27 kts 45°
2026-05-05 15:42 43.65286 7.21090 22 ft 114 kts 45°
2026-05-05 15:43 43.65725 7.21693 24 ft 148 kts 44°
2026-05-05 15:43 43.66485 7.22739 486 ft 156 kts 49°
2026-05-05 15:43 43.66943 7.24074 1070 ft 160 kts 90°
2026-05-05 15:43 43.66579 7.25525 1739 ft 166 kts 128°
2026-05-05 15:44 43.65755 7.26613 2430 ft 165 kts 138°
2026-05-05 15:44 43.64917 7.27694 3072 ft 165 kts 138°
2026-05-05 15:44 43.64079 7.28781 3674 ft 165 kts 139°
2026-05-05 15:44 43.63192 7.29914 4014 ft 184 kts 139°
2026-05-05 15:45 43.62209 7.31162 4327 ft 204 kts 139°
2026-05-05 15:45 43.61120 7.32558 4692 ft 221 kts 140°
2026-05-05 15:45 43.59849 7.33740 5231 ft 223 kts 163°
2026-05-05 15:45 43.58321 7.33984 5890 ft 223 kts 188°
2026-05-05 15:46 43.56786 7.33718 6736 ft 221 kts 189°
2026-05-05 15:46 43.55245 7.33466 7480 ft 224 kts 189°
2026-05-05 15:46 43.53683 7.33221 8223 ft 226 kts 189°
2026-05-05 15:46 43.52125 7.32982 8966 ft 229 kts 189°
2026-05-05 15:47 43.50509 7.32745 9593 ft 240 kts 190°
2026-05-05 15:47 43.48769 7.32460 9914 ft 264 kts 190°
2026-05-05 15:47 43.46865 7.32136 10204 ft 287 kts 190°
2026-05-05 15:47 43.44798 7.31786 10442 ft 311 kts 190°
2026-05-05 15:48 43.42566 7.31412 10635 ft 334 kts 189°
2026-05-05 15:48 43.40198 7.31023 11030 ft 348 kts 189°
2026-05-05 15:48 43.37805 7.30640 11735 ft 351 kts 190°
2026-05-05 15:48 43.35372 7.30259 12521 ft 352 kts 190°
2026-05-05 15:49 43.32919 7.30018 12847 ft 355 kts 182°
2026-05-05 15:49 43.30444 7.30443 12948 ft 369 kts 171°
2026-05-05 15:49 43.27939 7.31676 12955 ft 395 kts 158°
2026-05-05 15:49 43.25611 7.33795 12953 ft 408 kts 143°
2026-05-05 15:50 43.23668 7.36680 12957 ft 415 kts 133°
2026-05-05 15:50 43.21887 7.39750 12955 ft 415 kts 133°
2026-05-05 15:50 43.20077 7.42850 12952 ft 415 kts 133°
2026-05-05 15:50 43.18264 7.45933 12938 ft 415 kts 133°
2026-05-05 15:51 43.16442 7.49015 12947 ft 415 kts 133°
2026-05-05 15:51 43.14624 7.52085 12947 ft 415 kts 133°
2026-05-05 15:51 43.12815 7.55167 12947 ft 416 kts 131°
2026-05-05 15:51 43.11287 7.58508 12946 ft 422 kts 121°
2026-05-05 15:52 43.10195 7.62260 12938 ft 427 kts 110°
2026-05-05 15:52 43.09588 7.66274 12938 ft 431 kts 102°
2026-05-05 15:52 43.09108 7.70330 12940 ft 431 kts 103°
2026-05-05 15:52 43.08624 7.74337 12939 ft 431 kts 103°
2026-05-05 15:53 43.08129 7.78384 12943 ft 432 kts 103°
2026-05-05 15:53 43.07635 7.82433 12947 ft 432 kts 103°
2026-05-05 15:53 43.07161 7.86496 12950 ft 432 kts 102°
2026-05-05 15:53 43.06697 7.90590 12951 ft 432 kts 102°
2026-05-05 15:54 43.06242 7.94651 12953 ft 432 kts 102°
2026-05-05 15:54 43.05789 7.98669 12937 ft 432 kts 102°
2026-05-05 15:54 43.05326 8.02732 12942 ft 432 kts 102°
2026-05-05 15:54 43.04860 8.06796 12950 ft 432 kts 102°
2026-05-05 15:55 43.04395 8.10851 12960 ft 432 kts 102°
2026-05-05 15:55 43.03927 8.14916 12959 ft 432 kts 102°
2026-05-05 15:55 43.03453 8.18984 12961 ft 432 kts 102°
2026-05-05 15:55 43.02976 8.23040 12961 ft 432 kts 102°
2026-05-05 15:56 43.02504 8.27048 12968 ft 432 kts 102°
2026-05-05 15:56 43.02023 8.31116 12967 ft 432 kts 102°
2026-05-05 15:56 43.01543 8.35172 12960 ft 432 kts 102°
2026-05-05 15:56 43.01054 8.39228 12968 ft 432 kts 103°
2026-05-05 15:57 43.00520 8.43274 12966 ft 432 kts 104°
2026-05-05 15:57 42.99948 8.47306 12968 ft 432 kts 104°
2026-05-05 15:57 42.99353 8.51331 12978 ft 431 kts 104°
2026-05-05 15:57 42.98761 8.55302 12977 ft 431 kts 104°
2026-05-05 15:58 42.98164 8.59337 12973 ft 431 kts 104°
2026-05-05 15:58 42.97575 8.63354 12973 ft 431 kts 104°
2026-05-05 15:58 42.96991 8.67380 12975 ft 431 kts 104°
2026-05-05 15:58 42.96421 8.71348 12972 ft 431 kts 104°
2026-05-05 15:59 42.95801 8.75370 12963 ft 429 kts 108°
2026-05-05 15:59 42.94788 8.79188 12962 ft 424 kts 118°
2026-05-05 15:59 42.93359 8.82634 12969 ft 420 kts 128°
2026-05-05 15:59 42.91627 8.85828 12969 ft 418 kts 131°
2026-05-05 16:00 42.89877 8.89003 12961 ft 418 kts 131°
2026-05-05 16:00 42.88123 8.92188 12962 ft 418 kts 131°
2026-05-05 16:00 42.86370 8.95365 12957 ft 418 kts 130°
2026-05-05 16:00 42.84642 8.98497 12965 ft 418 kts 130°
2026-05-05 16:01 42.82896 9.01663 12970 ft 418 kts 130°
2026-05-05 16:01 42.81148 9.04823 12972 ft 417 kts 130°
2026-05-05 16:01 42.79415 9.07955 12773 ft 409 kts 130°
2026-05-05 16:01 42.77706 9.11043 12518 ft 405 kts 130°
2026-05-05 16:02 42.76007 9.14102 12260 ft 403 kts 130°
2026-05-05 16:02 42.74316 9.17140 12006 ft 401 kts 130°
2026-05-05 16:02 42.72654 9.20124 11758 ft 400 kts 130°
2026-05-05 16:02 42.70971 9.23147 11507 ft 398 kts 130°
2026-05-05 16:03 42.69296 9.26153 11273 ft 397 kts 130°
2026-05-05 16:03 42.67668 9.29075 11028 ft 385 kts 130°
2026-05-05 16:03 42.66080 9.31922 10786 ft 371 kts 130°
2026-05-05 16:03 42.64548 9.34669 10545 ft 358 kts 130°
2026-05-05 16:04 42.63066 9.37326 10301 ft 347 kts 130°
2026-05-05 16:04 42.61625 9.39904 10080 ft 337 kts 130°
2026-05-05 16:04 42.60221 9.42405 9892 ft 326 kts 130°
2026-05-05 16:04 42.58889 9.44772 9760 ft 313 kts 130°
2026-05-05 16:05 42.57595 9.47073 9619 ft 301 kts 130°
2026-05-05 16:05 42.56289 9.49253 9487 ft 294 kts 134°
2026-05-05 16:05 42.54941 9.51324 9330 ft 291 kts 135°
2026-05-05 16:05 42.53575 9.53353 9199 ft 290 kts 135°
2026-05-05 16:06 42.52223 9.55347 8887 ft 291 kts 135°
2026-05-05 16:06 42.50879 9.57339 8731 ft 280 kts 135°
2026-05-05 16:06 42.49584 9.59275 8472 ft 274 kts 135°
2026-05-05 16:06 42.48310 9.61184 8107 ft 272 kts 134°
2026-05-05 16:07 42.46954 9.62948 7747 ft 268 kts 146°
2026-05-05 16:07 42.45363 9.64214 7375 ft 263 kts 159°
2026-05-05 16:07 42.43635 9.64997 7074 ft 257 kts 165°
2026-05-05 16:07 42.42003 9.65674 6832 ft 242 kts 164°
2026-05-05 16:08 42.40410 9.66340 6405 ft 237 kts 164°
2026-05-05 16:08 42.38807 9.66728 5912 ft 234 kts 186°
2026-05-05 16:08 42.37301 9.66008 5607 ft 231 kts 216°
2026-05-05 16:08 42.36274 9.64321 5190 ft 238 kts 246°
2026-05-05 16:09 42.35763 9.62173 4791 ft 240 kts 251°
2026-05-05 16:09 42.35289 9.60065 4413 ft 232 kts 253°
2026-05-05 16:09 42.35242 9.57958 4055 ft 224 kts 289°
2026-05-05 16:09 42.36191 9.56397 3741 ft 214 kts 333°
2026-05-05 16:10 42.37545 9.55746 3502 ft 203 kts 342°
2026-05-05 16:10 42.38877 9.55199 3192 ft 198 kts 343°
2026-05-05 16:10 42.40167 9.54671 2893 ft 188 kts 343°
2026-05-05 16:10 42.41390 9.54168 2632 ft 180 kts 343°
2026-05-05 16:11 42.42556 9.53686 2390 ft 169 kts 343°
2026-05-05 16:11 42.45664 9.52395 1768 ft 148 kts 342°
2026-05-05 16:12 42.46650 9.51993 1567 ft 147 kts 342°
2026-05-05 16:12 42.48569 9.51135 1183 ft 145 kts 340°
2026-05-05 16:13 42.51416 9.49968 622 ft 138 kts 343°
2026-05-05 16:13 42.52333 9.49594 446 ft 136 kts 342°
2026-05-05 16:13 42.53229 9.49214 270 ft 134 kts 343°
2026-05-05 16:14 42.54934 9.48512 34 ft 96 kts 343°
2026-05-05 16:14 42.55559 9.48251 33 ft 35 kts 342°
2026-05-05 16:15 42.55953 9.48058 25 ft 16 kts 299°
2026-05-05 16:15 42.55916 9.47875 25 ft 9 kts 216°
2026-05-05 16:16 42.55739 9.47919 29 ft 15 kts 162°
2026-05-05 16:16 42.55526 9.48009 34 ft 22 kts 163°
2026-05-05 16:17 42.55216 9.48139 35 ft 25 kts 162°
2026-05-05 16:17 42.55070 9.48201 35 ft 21 kts 162°
2026-05-05 16:18 42.54873 9.48261 35 ft 7 kts 162°
2026-05-05 16:18 42.54845 9.48235 35 ft 5 kts 256°
2026-05-05 16:18 42.54830 9.48163 35 ft 1 kts 252°
2026-05-05 16:19 42.54830 9.48162 35 ft 0 kts 252°